Regional Weather Roundup
Issued by NWS Wakefield, VA

Home | Current Version | Previous Version | Graphics & Text | Print | Product List | Glossary On
Versions: 1 2 3 4 5 6 7 8 9 10 11 12 13 14 15 16 17 18 19 20 21 22 23 24 25 26 27 28 29 30 31 32 33 34 35 36 37 38 39 40 41 42 43 44 45 46 47 48 49 50
000
ASUS41 KAKQ 220315
RWRAKQ

REGIONAL WEATHER ROUNDUP
NATIONAL WEATHER SERVICE WAKEFIELD VA
1100 PM EDT SAT APR 21 2018

Note: "fair" indicates few or no clouds below 12,000 feet with no
significant weather and/or obstructions to visibility. * = Denotes
station may not report precipitation (e.g., rain,snow,etc.),
thunder or fog.

VAZ042-051-052>054-056-220400-
NORTHERN VIRGINIA

CITY           SKY/WX    TMP DP  RH WIND       PRES   REMARKS
WASH NATIONAL  CLOUDY    54  35  48 S6        30.39R
DULLES         CLOUDY    49  34  56 SE3       30.37S
FORT BELVOIR   CLOUDY    47  33  57 CALM      30.38R
QUANTICO       FAIR      54  40  59 S6        30.39R
FREDERICKSBRG* FAIR      53  38  58 E3        30.37R
STAFFORD*      FAIR      50  36  58 CALM      30.40F
WARRENTON      FAIR      47  35  65 CALM      30.36S
CULPEPER*      FAIR      47  33  59 CALM      30.38S
MANASSAS*      FAIR      47  39  74 CALM      30.38R
LEESBURG*      FAIR      50  37  62 CALM      30.38S
WINCHESTER     FAIR      46  30  53 CALM      30.37F
FRONT ROYAL*   FAIR      50  32  50 CALM      30.35S
LURAY*         FAIR      46  32  57 CALM      30.35S
$$

VAZ048-049-060>072-079>083-220400-
CENTRAL AND SOUTH CENTRAL VIRGINIA

CITY           SKY/WX    TMP DP  RH WIND       PRES   REMARKS
RICHMOND       FAIR      48  38  68 SE6       30.37S
CHESTERFIELD*  FAIR      52  37  56 SE7       30.37R
PETERSBURG*    HAZE      51  37  56 SE3       30.37S VSB 3/4
HANOVER        FAIR      52  36  54 E3        30.38R
TAPPAHANNOCK*  FAIR      48  37  65 CALM      30.39S
QUINTON*       FAIR      47  36  63 S6        30.38R
CHARLOTTSVILLE FAIR      56  32  40 N5        30.35R
GORDONSVILLE*  FAIR      51  40  67 CALM      30.35S
ORANGE*        FAIR      48  39  71 CALM      30.35S
LOUISA*        FAIR      49  35  59 SE3       30.39S
BUMPASS*       FAIR      54  31  41 SE3       30.35S
FARMVILLE*     FAIR      52  32  46 CALM      30.34R
CREWE*         FAIR      47  38  72 CALM      30.35R
FORT PICKETT*  FAIR      50  35  55 E7        30.35S
CHASE CITY*    FAIR      48  35  60 SE5       30.34S
CLARKSVILLE*   FAIR      52  36  54 SE3       30.34S
SOUTH HILL*    FAIR      46  38  75 CALM      30.40F
LAWRENCEVILLE* FAIR      52  37  55 E7        30.36R
EMPORIA*       FAIR      50  43  76 E6        30.39R
$$

VAZ088>098-220400-
SOUTHEAST VIRGINIA

CITY           SKY/WX    TMP DP  RH WIND       PRES   REMARKS
NORFOLK        FAIR      48  39  71 S7        30.39S
VIRGINIA BEACH FAIR      47  40  76 S5        30.39S
NORFOLK NAVAL  MOCLDY    48  38  68 S7        30.40S
WEST POINT*    FAIR      46  37  73 E3        30.40S
SALUDA*        FAIR      45  40  83 CALM      30.39S
NEWPORT NEWS   FAIR      45  37  73 CALM      30.39S
LANGLEY AFB    FAIR      50  35  58 S6        30.39S
FORT EUSTIS    FAIR      49  38  66 SE5       30.36S
WILLIAMSBURG*  FAIR      48  39  71 CALM      30.39S
HR EXEC AP*    FAIR      45  37  73 SE5       30.41S
FRANKLIN*      FAIR      48  37  65 SE5       30.39F
US460-WAKEFLD  FAIR      50  39  66 VRB5      30.38S
$$

VAZ020-022-025-037-045-220400-
WEST CENTRAL AND SOUTHWEST VIRGINIA

CITY           SKY/WX    TMP DP  RH WIND       PRES   REMARKS
STAUNTON*      FAIR      47  34  62 CALM      30.36S
WAYNESBORO*    FAIR      52  31  44 CALM      30.34S
HOT SPRINGS VA FAIR      49  20  32 S6        30.34S
LYNCHBURG      FAIR      51  29  42 CALM      30.33R
DANVILLE       FAIR      50  37  61 CALM      30.33R
SOUTH BOSTON*  FAIR      52  33  49 CALM      30.33S
MARTINSVILLE   FAIR      44  34  68 CALM      30.35S
ROANOKE        FAIR      58  29  33 SE3       30.34R
BLACKSBURG     FAIR      49  33  54 E3        30.35S
DUBLIN*        FAIR      52  32  46 SW3       30.34R
MARION*        FAIR      54  32  43 CALM      30.34S
HILLSVILLE*    FAIR      52  29  41 S6        30.33R
RICHLANDS*     FAIR      56 -13   5 SE6       30.30R
WISE*          FAIR      59  28  31 NE3       30.30S
ABINGDON*      FAIR      60  29  30 CALM      30.28S
$$

MDZ021>025-VAZ099-100-220400-
SOUTHERN MARYLAND AND THE DELMARVA PENINSULA

CITY           SKY/WX    TMP DP  RH WIND       PRES   REMARKS
PATUXENT RIVER FAIR      45  36  70 CALM      30.38S
BAY BRIDGE APT FAIR      50  41  71 S5        30.39S
LEONARDTOWN    FAIR      43  36  75 CALM      30.40S
DOVER          FAIR      47  34  60 CALM      30.37S
GEORGETOWN     FAIR      47  39  74 S5        30.39S
EASTON         FAIR      50  36  59 CALM      30.42S
CAMBRIDGE        N/A     45  37  76 CALM      30.39S
SALISBURY      FAIR      43  38  82 CALM      30.39S
TANGIER        FAIR      48  45  87 S10       30.38F
OCEAN CITY     FAIR      46  42  86 SW7       30.39F
WALLOPS ISLAND FAIR      46  41  82 SW6       30.40S
ACCOMACK*      FAIR      43  40  91 CALM      30.39F
$$

NCZ012>017-030>032-220400-
NORTH CENTRAL AND EASTERN NORTH CAROLINA

CITY           SKY/WX    TMP DP  RH WIND       PRES   REMARKS
ROANOKE RAPIDS FAIR      50  43  76 SE3       30.37S
RALEIGH        MOCLDY    55  39  54 SE5       30.35R
ELIZABETH CITY FAIR      49  41  74 SE6       30.41S
AHOSKIE*       FAIR      48  43  82 E5        30.39S
EDENTON*       FAIR      50  41  71 SE6       30.41S
CURRITUCK*     NOT AVBL
KILL DEVIL HLS FAIR      44  35  70 CALM      30.40F
MANTEO         FAIR      46  37  71 CALM      30.42S
CAPE HATTERAS  FAIR      50  40  68 E6        30.40F
TARBORO*       NOT AVBL
GOLDSBORO      FAIR      54  39  57 SE3       30.36R
WASHINGTON     FAIR      50  42  75 E5        30.40R
GREENVILLE     HAZE      54  43  66 SE7       30.39S VSB 1
NEW BERN       FAIR      52  43  71 E5        30.40S
WILMINGTON     FAIR      57  41  55 E6        30.37F
$$

VAZ048-220400-
ELSEWHERE

CITY           SKY/WX    TMP DP  RH WIND       PRES   REMARKS
HARRISBURG PA  MOCLDY    51  31  46 E6        30.35R
BALTIMORE      CLOUDY    47  33  58 CALM      30.37S
ANNAPOLIS      FAIR      53  40  61 CALM      30.38S
ANDREWS AFB    CLOUDY    50  35  56 S3        30.37S
PHILADELPHIA   MOCLDY    52  31  44 SW5       30.36S
HENDERSON NC   FAIR      53  30  42 SE3       30.34F
GREENSBORO     FAIR      54  34  46 S3        30.33R
ROCKY MOUNT    FAIR      54  41  61 SE5       30.37R
$$

VAZ100-220400-
MARINE

STATION/POSITION TIME  TEMP    WIND        PRES    WAVE   SWELL
                       AIR SEA DIR/SP/G            HT/PER HT/PER
                 (UTC) (F)     (DEG/KT/KT) (MB)    (FT/S) (FT/S)
BRANDYWINE LGT   0242   49     210/ 12/ 14 1028.9F
CAPE MAY NJ      0248   47 50  200/  7/ 10 1028.2F
LEWES DE         0248   48 51  200/  4/  7 1028.6F
15NM E FENWICK I 0250   45 46  210/ 12/ 14 1029.4F   2/ 3
OCEAN-CITY-INLET 0248   48 52  230/  8/  9 1029.5F
WACHAPREAGUE VA  0248   48 56  200/  8/  9 1029.3F
THOMAS POINT MD  0300   51 51  190/  9/  9 1029.8R
GOOSES REEF MD   0300   51     190/  8/ 10 1029.2
COVE POINT MD    0248   50     200/  7/  9 1029.5F
SOLOMONS ISLAND  0248   50 53  150/  3/  4 1028.6F
BISHOPS HEAD MD  0248   53 57  190/  6/  7 1029.2F
PINEY POINT MD   0248          200/  7/  8   N/A
POTOMAC MD       0300   52 54  170/  8/ 10 1030.1    1
CAMBRIDGE MD     0248   49 54              1029.7S
LEWISETTA VA     0248   51 55  170/  3/  5 1028.8F
RAPPAHANNOCK LGT 0248          160/ 10/ 12 1029.7F
YORK RVR RNG VA  0248   52     160/ 12/ 13 1029.5F
YORKTOWN VA      0248   50 56  170/  5/  5 1028.7S
DOMINION TERM VA 0248   51     170/ 10/ 12 1029.4S
KIPTOPEKE VA     0248      55  150/  6/  8   N/A
CAPE HENRY VA    0248   48     150/  8/ 11   N/A
WILLOUBY STN VA  0248   49     160/  9/ 11 1029.1S
S CRANEY ISL VA  0248   51     180/ 12/ 13 1029.1R
CAPE HENRY BUOY  0300      50                N/A     2/ 6
64NM E OF VA BCH 0250   49 49  100/  8/ 10 1029.9R   2/ 6   2/ 6
DUCK PIER NC     0248   49 53  150/ 10/ 12 1029.5R
44100 DUCK FRF   0245      50                N/A     2/ 6
44056 DUCK FRF   0300      52                N/A     2/ 6
OREGON INLET NC  0242   48 57   90/  5/  7 1029.9R
HATTERAS NC      0248   52 62   70/  7/  9 1029.1F
DIAMOND SHLS NC  0300   58 73   40/ 10/ 14 1029.3
CAPE LOOKOUT NC  0300          100/ 12/ 13 1029.0S
$$



USA.gov is the U.S. government's official web portal to all federal, state and local government web resources and services.